Location: Centerville
(32.8776°N, 96.6203°W)
Time: 15:56:03
(UTC+00:00)

Cosmos 2278 Rocket - Pass Details

Date: 17 June 2021
Orbit: 840 x 846 km, 71.0° (Epoch: 26 July)

Event Time Altitude Azimuth Distance (km) Brightness Sun altitude
Rises 06:41:35 0° 331° (NNW) 3,405 6.1 -33.6°
Reaches altitude 10° 06:44:09 10° 324° (NW) 2,467 5.1 -33.6°
Enters shadow 06:47:04 28° 305° (NW) 1,538 3.7 -33.5°
